Theta_e
296 296 296 296 294 294 294 295 295 296 297 298 297 297 297 296 298 297 305 307 306 308 310 312 314 316 318 320 325 325 328 326 326 324 325 325 328 329 334 336 339 338 339 336 336 337 336 337 336 336 347 343 346 347
296 297 297 296 294 294 295 297 298 298 297 295 297 297 296 295 296 296 305 306 306 306 309 309 309 311 311 316 318 322 322 327 327 328 327 330 331 333 337 335 336 339 340 339 344 344 344 344 345 344 343 343 346 345
296 297 297 295 296 295 296 295 295 294 295 294 294 294 294 295 295 296 300 303 305 307 310 311 312 315 313 313 314 315 320 323 325 326 325 328 333 331 337 334 337 337 336 339 338 339 342 342 342 342 341 341 343 342
296 294 294 295 295 293 294 294 293 293 293 293 294 294 294 294 295 296 300 302 304 307 310 314 314 314 314 315 316 315 316 319 322 321 323 324 326 326 329 331 330 332 335 335 337 338 330 336 340 342 341 340 339 338
296 293 295 295 294 296 294 294 293 292 292 293 293 294 293 294 296 300 302 303 304 305 310 311 312 313 314 314 315 315 316 318 319 320 322 322 322 325 325 326 328 327 330 334 334 337 337 337 342 341 339 338 338 336
296 295 294 294 294 295 293 292 292 292 292 292 293 294 295 296 297 303 307 307 307 306 307 313 315 315 316 314 314 315 316 317 318 320 321 321 323 323 323 325 325 328 329 334 334 334 337 337 339 337 336 334 333 333
295 294 293 295 296 295 295 294 293 292 292 293 294 296 297 297 302 305 307 307 306 307 307 312 316 315 315 315 315 314 316 317 317 319 320 320 322 322 321 322 322 326 327 328 331 327 329 327 330 330 333 332 332 331
293 293 293 295 296 294 295 294 293 292 293 293 298 303 306 305 305 306 306 303 305 307 308 313 316 317 317 318 318 315 315 317 317 318 318 320 320 321 322 321 321 323 323 324 324 329 328 328 334 334 333 332 330 330
293 293 293 295 295 294 294 294 293 293 294 298 302 306 306 307 308 308 306 305 306 308 310 313 316 319 317 317 318 319 318 318 316 318 318 318 321 323 322 321 321 321 323 322 322 322 328 323 332 333 333 332 329 329
293 293 293 294 294 294 293 293 293 297 301 302 305 307 311 309 307 306 307 307 307 309 309 312 313 315 314 316 318 319 318 319 319 318 316 319 321 319 320 320 321 323 322 323 323 322 326 332 333 332 331 330 329 328
294 293 294 294 294 294 294 293 293 299 301 303 306 308 308 306 307 309 310 311 312 313 312 313 313 316 315 316 318 318 321 319 320 319 318 318 319 321 319 319 320 320 320 322 322 323 326 329 332 331 330 330 329 327
294 294 294 295 294 295 294 293 292 297 298 299 300 302 306 308 309 312 313 313 314 315 315 315 316 316 315 316 318 319 321 319 320 318 318 319 322 318 317 318 319 320 320 322 322 323 324 325 332 330 329 328 327 326
295 294 294 295 295 295 295 293 292 292 298 303 304 306 308 308 310 312 314 314 317 315 315 316 317 316 317 316 317 320 321 320 319 322 322 320 323 319 317 317 319 318 319 321 322 322 323 328 331 330 328 327 325 325
296 294 294 295 295 295 295 293 293 296 303 306 306 305 308 310 310 313 315 315 315 315 315 314 315 316 318 319 319 320 321 322 323 322 321 328 325 323 326 318 320 318 319 321 322 323 328 330 329 328 327 325 323 322
296 295 294 295 295 296 296 294 293 297 303 304 306 306 310 310 310 311 311 311 313 313 313 313 314 317 319 319 320 319 321 322 324 327 326 324 321 319 326 328 327 322 321 325 327 329 328 328 326 324 324 323 321 318
297 296 295 296 296 296 295 294 297 301 303 303 304 307 309 310 310 311 311 312 312 312 313 315 316 316 316 319 320 321 322 321 321 324 321 322 322 323 327 328 329 328 329 328 327 326 324 322 322 322 321 318 315 314
297 297 298 297 297 296 294 300 302 302 303 304 306 306 306 308 310 310 311 311 312 312 315 313 314 314 314 319 320 322 322 319 320 320 320 321 322 323 324 326 327 327 327 325 322 320 321 321 320 318 315 314 314 313
297 298 297 296 296 299 301 300 302 302 303 303 306 307 308 309 310 310 312 313 312 313 312 313 312 316 317 318 320 319 317 317 317 318 319 321 320 323 324 324 323 323 322 321 322 321 319 316 315 314 313 313 313 314
298 298 296 296 299 301 301 301 301 303 304 305 305 305 307 309 310 311 312 312 311 311 310 311 314 317 318 317 315 314 314 315 316 317 319 320 323 323 322 322 321 321 321 319 319 316 314 314 313 312 312 312 312 312
297 296 296 295 299 302 300 301 301 302 305 306 306 308 309 311 310 309 310 311 311 311 310 313 315 314 313 312 313 313 313 315 316 317 319 321 321 321 320 319 318 316 315 314 313 312 312 312 312 312 312 312 312 314
297 296 295 297 300 300 300 301 303 303 304 306 308 309 309 308 309 310 310 310 312 312 312 312 311 310 312 312 313 314 317 318 319 319 319 318 318 317 316 315 314 314 313 312 312 312 313 314 314 314 315 316 316 315
297 297 299 299 300 300 301 302 302 304 305 307 308 305 306 308 309 308 310 309 311 309 310 310 312 312 312 313 315 316 317 317 318 318 317 317 315 314 314 313 313 313 313 313 313 314 314 314 314 315 317 316 316 317
299 299 300 299 301 299 299 303 305 305 306 307 304 306 308 309 308 308 308 308 309 309 312 312 311 311 312 313 314 316 316 316 316 316 315 315 314 314 315 315 314 315 316 316 314 314 313 315 316 316 316 316 316 316
299 301 301 302 302 302 303 305 305 305 304 304 305 308 308 309 307 307 306 304 307 309 311 311 312 312 313 313 313 314 315 315 314 315 315 315 314 314 314 314 314 314 315 314 314 314 315 315 315 314 314 314 314 314
297 299 301 298 303 303 304 306 305 304 306 306 308 310 310 308 308 306 304 303 307 308 310 312 312 312 313 314 314 314 315 315 315 315 314 314 314 313 313 313 314 313 313 313 313 313 313 313 313 313 313 313 312 312
304 302 302 303 303 304 305 306 305 306 307 311 311 312 310 309 308 306 303 303 306 308 309 310 311 313 313 313 313 313 313 314 314 314 314 314 314 314 313 313 313 314 314 313 313 313 312 313 314 313 311 310 309 307
304 304 304 302 303 301 301 302 302 304 312 314 313 311 309 309 308 305 304 304 306 307 308 309 310 311 311 312 312 313 313 313 312 313 313 314 314 314 314 313 313 312 313 313 313 313 312 312 311 309 308 307 307 306
301 301 301 302 301 302 304 307 312 313 313 312 310 310 310 310 309 306 305 306 307 308 308 308 307 308 308 309 310 309 308 308 308 308 308 308 308 309 309 310 311 310 310 310 310 310 309 309 308 308 307 307 307 307
303 305 303 305 309 308 312 311 311 310 310 310 310 311 311 310 309 309 308 309 309 308 309 308 307 307 307 307 308 308 308 308 308 308 307 307 307 306 306 306 307 307 307 307 306 307 307 306 305 306 306 306 306 306
311 310 311 312 312 312 311 311 311 311 311 310 310 311 311 311 311 310 310 309 309 309 308 308 308 307 307 307 307 307 307 307 308 308 308 308 307 307 308 307 307 307 307 307 306 306 306 307 307 307 307 308 308 307
311 311 311 311 312 311 311 311 311 311 311 311 311 311 311 311 311 310 309 309 309 309 309 309 309 310 309 309 308 308 308 307 307 307 307 307 308 308 308 308 308 308 308 308 308 308 307 308 307 307 306 306 306 306
311 311 311 312 312 311 311 311 311 311 311 311 311 311 311 311 311 311 310 310 310 310 309 310 310 310 310 310 309 309 309 308 308 308 308 309 309 309 309 308 308 308 307 307 307 307 307 307 308 308 308 308 308 307
312 312 312 313 313 313 312 312 312 312 312 312 311 311 311 311 312 311 310 310 311 310 310 311 311 311 310 311 310 309 309 308 307 307 307 306 305 306 306 306 307 306 306 307 307 308 308 308 308 308 308 308 308 307
Wind_Speed
13 13 14 17 16 15 14 14 14 13 14 14 14 14 14 13 11 6 5 11 5 11 25 17 17 13 10 2 4 13 9 10 9 12 12 11 13 9 12 9 10 15 13 13 11 16 22 4 7 8 9 9 17 22
13 13 15 18 15 12 11 13 14 14 15 14 13 14 14 13 12 8 3 8 10 11 20 20 22 22 17 8 6 8 13 9 8 5 2 4 7 6 10 7 16 4 7 7 3 3 8 7 13 13 14 15 17 20
14 13 17 16 15 12 14 14 15 15 13 13 13 13 13 12 12 10 11 11 12 16 24 21 17 11 8 11 11 9 1 6 14 7 6 4 3 7 2 5 3 4 7 5 5 3 7 3 11 10 14 15 19 17
15 14 11 13 12 12 13 13 14 13 13 12 12 13 14 12 11 11 9 10 7 10 7 5 3 10 9 8 8 14 13 11 13 12 7 5 3 2 6 3 3 4 1 5 9 7 18 24 10 14 15 16 16 16
15 11 11 11 10 12 13 13 14 14 14 14 13 12 14 12 8 9 9 8 4 4 7 15 18 13 10 9 12 11 10 10 14 14 6 6 8 4 5 9 6 4 2 3 8 10 16 14 8 9 15 16 18 18
13 11 11 9 9 12 13 13 13 14 14 14 13 13 13 9 5 7 3 1 2 5 6 4 8 8 7 7 9 10 11 11 11 11 5 11 2 2 4 9 12 13 15 11 6 12 8 4 9 8 22 18 15 16
13 10 9 8 10 12 13 13 14 14 13 14 14 11 7 3 4 3 1 2 3 4 4 7 5 4 5 6 8 10 11 13 13 15 13 11 8 3 6 10 14 6 6 4 5 1 11 9 18 11 10 15 15 16
11 9 9 8 11 12 13 14 14 13 13 12 7 3 3 2 3 3 5 7 4 5 4 4 3 11 1 5 5 8 13 14 17 16 17 14 9 5 9 8 11 7 2 6 6 7 3 9 12 16 15 13 15 14
10 10 9 9 10 12 13 13 12 11 10 5 1 3 2 2 4 6 5 3 3 4 6 4 4 3 7 10 7 8 8 8 11 9 14 13 10 5 9 16 13 16 12 11 4 4 7 20 10 16 16 17 13 12
11 10 10 10 9 10 12 11 9 6 6 4 1 3 3 3 3 3 2 3 3 5 6 7 10 5 11 7 3 5 7 5 8 12 18 12 13 25 22 19 12 12 12 11 14 10 11 11 15 16 16 16 13 14
11 11 10 10 9 9 10 10 6 4 8 5 4 2 4 6 2 4 4 4 5 4 6 7 6 7 10 6 4 4 3 3 8 11 10 11 12 18 30 29 21 18 15 14 12 11 12 16 17 14 11 15 13 14
12 11 10 9 9 9 9 9 7 7 6 5 5 5 3 5 5 4 3 4 5 2 4 2 1 4 5 3 5 3 3 4 6 7 8 15 13 21 21 29 30 26 23 28 13 8 10 8 20 16 16 17 15 15
13 12 11 10 8 8 8 8 6 7 3 1 2 2 4 3 1 4 4 3 2 2 1 2 4 3 3 4 6 3 4 6 11 1 5 10 12 16 19 20 23 26 27 21 18 12 10 11 17 17 17 16 14 16
13 13 12 9 7 6 6 6 5 3 2 5 4 2 4 4 5 3 4 4 2 2 7 8 7 3 4 3 3 4 4 4 3 4 4 8 20 20 17 18 22 32 27 24 20 13 15 17 14 15 17 20 21 20
13 11 12 9 6 4 5 3 3 1 4 4 4 3 8 7 2 6 8 9 8 6 11 10 9 5 4 4 3 4 4 4 2 5 6 18 19 21 16 11 3 8 10 13 20 18 18 19 17 19 19 19 25 22
14 11 10 8 6 4 3 3 3 3 3 4 5 7 3 4 4 3 5 5 5 9 10 3 4 3 3 4 3 6 4 4 3 5 15 15 13 11 12 7 1 8 17 19 20 19 18 15 15 16 18 24 27 31
15 7 10 6 6 3 1 3 3 4 4 4 7 8 8 2 1 6 5 7 6 9 2 2 2 3 5 4 3 3 4 5 15 15 17 17 16 12 5 7 11 15 18 20 19 16 14 14 15 21 29 30 31 32
11 12 9 9 8 1 1 1 3 3 5 9 11 9 7 4 4 2 4 7 6 5 3 2 4 4 3 3 4 4 16 22 23 19 19 16 13 4 8 12 13 15 17 16 13 14 17 23 30 33 33 32 31 26
10 9 11 10 9 4 3 3 3 4 6 8 6 7 7 5 7 8 10 8 9 7 3 4 4 3 2 4 15 21 22 21 21 19 17 13 1 4 7 11 13 13 14 14 20 26 30 31 34 33 30 29 31 33
14 10 12 12 10 1 1 2 2 5 5 5 8 5 8 7 9 11 10 8 6 3 5 3 2 7 11 20 24 25 27 25 23 19 10 9 6 13 15 19 25 27 30 30 33 32 35 34 30 33 34 32 27 20
12 9 12 9 1 2 2 3 3 4 6 6 9 10 6 8 7 7 8 11 2 3 3 4 13 19 19 19 16 13 8 4 6 15 19 22 20 20 26 32 32 30 31 35 39 36 30 25 24 22 20 13 13 13
10 12 5 2 0 1 3 2 4 8 5 8 7 9 3 5 6 5 10 6 5 6 10 15 13 6 6 7 9 8 9 11 14 19 23 26 32 34 34 36 36 31 29 30 29 23 18 21 22 11 13 16 13 10
11 6 3 1 2 2 5 3 2 3 3 5 7 4 2 5 10 8 4 10 8 15 10 7 8 14 16 13 12 17 18 25 29 31 35 35 34 34 31 29 28 24 26 26 23 25 23 14 10 12 11 13 12 11
3 1 1 1 1 2 4 2 2 3 3 3 2 2 3 5 7 6 3 9 20 21 18 19 22 27 26 24 23 25 25 29 33 35 33 31 29 26 26 24 20 19 18 20 21 17 14 11 11 13 15 12 9 8
1 2 1 2 3 2 2 4 3 2 1 2 1 1 3 4 2 3 4 14 25 26 28 34 34 34 35 36 28 23 23 23 24 24 22 24 27 26 24 23 22 21 18 15 16 13 13 10 8 8 6 6 5 4
3 2 1 2 2 2 2 2 2 2 2 0 2 4 3 4 4 4 6 17 18 24 24 25 27 27 26 27 29 30 28 27 28 27 22 21 23 24 24 21 16 14 14 8 6 8 9 6 6 5 3 1 2 3
1 2 2 2 1 1 2 4 4 3 2 2 3 3 3 4 4 3 5 9 13 15 17 18 18 18 20 21 21 21 21 21 23 24 21 17 15 14 14 14 12 12 11 9 8 9 8 6 4 2 2 1 2 2
1 2 1 1 1 3 2 2 1 4 4 5 5 2 2 3 2 6 14 14 12 10 10 12 15 16 17 16 16 16 17 17 18 17 17 16 14 13 12 12 12 10 11 12 9 7 5 4 3 1 1 2 3 4
1 1 1 3 2 1 5 6 6 9 20 19 12 5 5 4 9 9 12 5 12 18 11 14 15 16 17 17 18 18 16 15 16 16 17 17 16 14 12 12 11 10 9 6 4 3 4 4 4 3 3 3 5 6
4 4 3 10 5 4 11 13 20 19 20 22 19 17 16 11 10 10 8 7 8 10 13 15 15 16 16 17 18 18 16 15 14 14 15 15 13 11 11 11 10 9 8 7 5 9 12 7 8 8 6 7 9 11
13 23 24 23 22 19 18 18 19 20 19 19 18 18 18 18 14 14 15 14 14 14 15 15 14 15 15 16 15 15 16 15 14 14 12 11 10 10 9 8 8 7 6 6 5 5 6 6 8 10 12 12 12 13
17 18 18 16 17 16 16 16 18 20 18 15 18 20 17 21 20 15 14 14 14 14 13 14 15 15 14 14 13 12 11 10 8 7 10 9 6 5 6 6 5 6 7 7 7 8 9 12 13 13 13 13 14 14
16 16 15 15 14 10 11 11 12 12 14 15 16 14 13 13 11 10 9 10 11 11 10 11 11 9 8 9 8 7 7 8 11 17 17 15 13 7 7 7 6 6 8 9 10 12 13 14 13 13 12 13 12 11
Wind_Direction
307 315 318 325 323 325 327 329 332 332 336 335 337 337 339 339 339 355 274 307 324 290 280 274 288 288 299 43 353 322 294 216 199 218 235 237 243 247 234 261 232 206 211 225 242 237 247 150 180 233 99 110 90 82
312 311 315 324 325 329 334 338 332 324 321 323 331 332 333 334 334 347 327 304 302 276 263 286 282 268 257 254 269 312 340 341 309 326 301 291 313 18 353 259 181 243 326 274 2 347 21 60 98 125 127 118 108 105
309 301 303 314 316 320 318 314 314 317 320 325 328 328 327 326 323 321 305 311 325 285 291 266 262 277 240 248 251 269 289 342 320 349 327 339 24 347 291 29 312 75 64 294 334 51 351 171 132 133 126 117 118 121
310 308 306 307 314 321 324 325 325 327 326 326 325 323 325 325 317 315 305 298 312 301 281 268 167 257 267 249 243 251 268 277 296 294 313 294 315 332 316 53 324 35 174 248 264 324 347 313 122 120 127 134 127 126
307 303 303 309 317 323 324 326 329 333 335 331 327 322 320 318 315 310 299 284 295 311 310 305 302 266 255 247 243 251 255 266 282 293 288 280 295 226 259 301 269 355 270 308 317 76 214 298 126 156 147 137 127 124
299 292 300 307 318 329 331 332 332 332 332 329 325 319 314 310 315 46 319 350 265 281 305 294 325 268 249 250 249 241 233 235 253 269 289 288 308 310 277 259 240 67 28 3 6 53 79 56 89 357 119 114 115 114
289 284 283 297 313 313 322 325 330 330 329 325 324 319 311 288 194 222 303 250 258 304 286 293 316 224 228 237 240 235 230 238 233 248 233 243 255 272 262 263 288 43 78 8 337 315 70 112 115 130 132 119 119 120
276 277 277 291 306 311 317 327 330 329 327 327 335 357 3 140 128 267 269 241 242 282 258 271 289 227 167 250 248 214 220 214 237 241 245 235 246 230 248 263 275 257 297 265 357 286 279 221 179 154 141 135 122 127
271 271 272 286 303 314 319 327 335 334 331 342 89 144 116 158 218 212 259 268 276 258 294 273 294 1 321 358 350 262 262 247 224 222 236 237 220 202 252 255 270 262 251 243 220 349 266 153 193 156 159 148 147 155
262 262 269 281 298 313 322 332 348 17 44 22 210 226 219 137 288 296 328 220 231 212 227 261 295 289 320 337 40 321 274 259 242 234 227 217 238 230 224 244 253 240 249 265 237 253 185 157 185 156 155 164 164 167
254 255 261 275 291 311 324 333 356 20 25 324 273 90 18 333 237 229 217 227 209 228 218 250 284 320 305 319 332 284 284 254 259 251 237 234 228 226 232 231 219 229 236 258 243 243 237 183 181 169 163 173 177 179
249 249 256 268 284 307 322 329 335 2 324 321 292 325 289 203 240 241 230 213 221 231 202 255 250 311 296 291 267 240 254 264 254 280 256 228 240 232 228 219 217 216 225 229 210 214 240 266 166 166 173 171 176 179
245 246 249 261 277 297 314 321 334 342 351 23 327 272 266 234 294 239 211 222 200 200 180 297 304 289 277 251 247 267 247 248 314 342 272 251 309 219 212 220 209 213 231 230 217 212 228 168 162 167 164 173 174 173
238 242 245 251 261 279 302 316 339 15 78 229 193 247 235 197 249 243 304 323 39 290 321 316 302 217 247 242 242 251 249 277 257 243 246 7 348 351 334 210 204 203 212 218 215 194 150 143 147 161 161 174 174 169
231 234 240 233 235 258 294 299 343 49 285 264 243 242 217 202 205 327 321 302 349 330 333 324 293 255 255 257 234 286 253 243 337 14 9 351 336 299 323 350 359 180 214 161 144 135 136 138 146 144 160 172 184 174
219 232 241 230 229 241 277 292 222 230 258 257 254 260 281 72 335 322 301 322 344 323 322 315 347 307 276 268 201 233 270 58 289 340 342 336 348 292 288 282 3 114 117 122 126 135 143 147 156 169 174 169 158 159
204 207 234 217 205 199 97 70 197 221 261 247 241 238 270 313 44 292 282 297 309 309 353 20 278 267 314 253 256 336 33 327 308 348 342 341 335 316 266 137 103 107 113 121 130 134 140 154 165 164 154 152 154 158
188 210 205 178 174 7 203 207 255 230 245 246 261 350 8 330 257 323 342 6 342 13 359 285 311 241 231 278 322 348 330 326 319 324 323 328 329 321 124 125 131 142 134 135 143 145 148 152 152 153 154 154 152 144
175 198 188 167 154 148 193 231 246 269 251 292 295 277 282 328 9 345 338 344 317 292 240 248 252 249 281 313 333 317 308 306 303 302 299 310 90 148 138 150 140 148 149 152 149 148 148 156 147 138 137 146 151 153
173 172 160 159 146 182 213 232 233 270 284 345 293 293 359 8 331 325 322 323 304 207 208 229 263 338 317 310 307 301 299 299 294 287 297 148 143 148 144 142 135 136 133 134 135 137 134 134 141 143 145 148 155 166
119 148 139 133 187 318 280 281 244 275 316 294 7 19 336 339 336 332 350 349 322 315 290 304 325 318 310 305 304 306 310 65 105 122 125 121 127 127 129 125 130 133 131 130 131 135 137 138 149 154 155 153 158 157
137 124 135 93 133 250 270 245 300 328 292 342 11 351 319 319 340 355 342 357 18 321 324 306 321 350 13 48 86 84 88 90 108 124 126 127 116 115 115 117 118 119 129 139 142 144 138 139 147 154 144 142 153 152
110 97 124 144 240 274 263 328 338 348 306 358 340 310 326 358 357 7 46 354 351 360 45 50 67 89 82 91 101 105 103 104 99 104 108 114 117 124 125 126 130 123 120 130 137 142 140 148 142 116 125 124 116 124
41 18 275 290 275 315 351 355 19 341 337 339 307 16 10 6 13 34 12 329 348 35 82 80 71 74 76 78 89 100 103 110 107 113 119 122 127 129 128 116 103 107 116 122 140 137 122 122 133 120 107 94 99 113
283 27 320 321 355 8 318 340 349 337 305 294 296 113 75 35 43 39 358 343 11 40 68 80 71 71 68 71 84 100 103 94 100 103 106 107 110 110 109 106 92 101 107 105 110 114 107 113 123 104 82 87 99 87
40 48 62 45 308 20 340 316 338 319 294 322 57 100 64 47 44 36 357 350 22 55 63 64 63 61 66 76 75 75 77 78 84 97 110 109 111 110 102 99 98 98 108 109 121 152 147 115 110 116 102 85 7 344
357 4 9 3 359 265 286 264 265 268 310 41 73 58 49 60 44 36 32 33 48 53 53 48 55 65 70 74 77 81 84 86 83 86 92 92 91 93 97 97 97 96 100 105 119 118 123 121 120 109 76 44 356 360
244 267 241 305 237 213 263 251 340 17 360 44 71 59 67 78 144 121 95 64 63 31 45 63 66 70 71 77 81 82 82 85 86 89 90 87 86 90 93 99 117 122 120 115 108 106 106 107 101 78 11 352 347 344
224 223 234 255 175 207 38 41 39 75 85 88 94 87 110 143 158 173 191 149 56 35 62 86 82 78 76 75 76 78 80 84 87 87 86 86 84 80 79 80 82 84 91 102 101 149 141 103 71 55 16 2 344 333
83 165 75 63 68 60 93 104 95 98 95 95 100 103 108 119 130 127 130 145 112 92 78 77 79 77 76 75 74 73 72 74 76 79 81 81 82 82 80 79 77 75 74 66 57 45 41 25 357 359 354 344 350 353
92 101 104 102 104 111 116 114 112 110 107 99 93 94 102 108 96 93 92 90 88 83 80 77 70 69 71 72 73 75 74 68 71 72 76 78 80 77 71 65 59 52 43 32 19 0 344 353 344 332 324 320 317 315
105 104 103 103 109 111 113 113 110 108 106 95 92 95 97 87 78 68 74 88 84 78 67 70 69 67 69 76 72 69 70 65 57 59 70 70 72 51 35 24 17 21 11 8 355 345 344 337 339 340 339 337 339 341
122 108 103 104 101 100 97 97 91 99 105 109 116 107 94 87 66 59 67 66 68 70 69 63 63 73 66 57 61 71 71 58 49 44 40 44 49 58 23 5 4 356 353 352 345 345 345 346 347 343 338 330 328 329